iso_date,epoch_date,Year,Hour,Min,DOY,POS_DOY,Lat,Lon,BP,Ts,Ta,has_bp,has_ts,has_ta,BuoyID,Buoy_Type,Buoy_Owner,Logistics,Hemisphere
2018-03-30T19:01:55Z,1522436515,2018,19,2,89.793,89.793,71.83907,-144.31197,-999.00,-0.01,-999.0,no,yes,no,300234066713470,WARM,ODU,ODU,North
2018-03-30T19:29:16Z,1522438157,2018,19,30,89.812,89.812,71.83889,-144.31381,-999.00,-9.26,-999.0,no,yes,no,300234066713470,WARM,ODU,ODU,North
2018-03-30T19:59:31Z,1522439971,2018,20,0,89.833,89.833,71.83867,-144.31532,-999.00,-5.36,-999.0,no,yes,no,300234066713470,WARM,ODU,ODU,North
2018-03-30T20:31:12Z,1522441872,2018,20,31,89.855,89.855,71.83849,-144.31732,-999.00,-3.8,-999.0,no,yes,no,300234066713470,WARM,ODU,ODU,North
2018-03-30T21:00:00Z,1522443600,2018,21,0,89.875,89.875,71.83843,-144.31906,-999.00,-1.88,-999.0,no,yes,no,300234066713470,WARM,ODU,ODU,North
2018-03-30T21:30:14Z,1522445414,2018,21,30,89.896,89.896,71.83845,-144.32108,-999.00,-0.43,-999.0,no,yes,no,300234066713470,WARM,ODU,ODU,North
2018-03-30T22:00:28Z,1522447229,2018,22,1,89.917,89.917,71.83846,-144.32315,-999.00,-0.57,-999.0,no,yes,no,300234066713470,WARM,ODU,ODU,North
2018-03-30T22:30:43Z,1522449043,2018,22,31,89.938,89.938,71.83861,-144.32535,-999.00,-0.5,-999.0,no,yes,no,300234066713470,WARM,ODU,ODU,North
2018-03-30T22:59:31Z,1522450771,2018,23,0,89.958,89.958,71.83879,-144.32742,-999.00,-1.59,-999.0,no,yes,no,300234066713470,WARM,ODU,ODU,North
2018-03-30T23:29:45Z,1522452586,2018,23,30,89.979,89.979,71.83903,-144.32962,-999.00,-2.98,-999.0,no,yes,no,300234066713470,WARM,ODU,ODU,North
2018-03-31T00:00:00Z,1522454400,2018,0,0,90.0,90.0,71.8393,-144.3316,-999.00,-3.68,-999.0,no,yes,no,300234066713470,WARM,ODU,ODU,North
2018-03-31T00:30:14Z,1522456214,2018,0,30,90.021,90.021,71.83957,-144.33347,-999.00,-5.77,-999.0,no,yes,no,300234066713470,WARM,ODU,ODU,North
2018-03-31T01:00:28Z,1522458029,2018,1,1,90.042,90.042,71.83986,-144.33516,-999.00,-7.05,-999.0,no,yes,no,300234066713470,WARM,ODU,ODU,North
2018-03-31T01:29:16Z,1522459757,2018,1,30,90.062,90.062,71.84011,-144.33656,-999.00,-8.73,-999.0,no,yes,no,300234066713470,WARM,ODU,ODU,North
2018-03-31T01:59:31Z,1522461571,2018,2,0,90.083,90.083,71.84033,-144.33786,-999.00,-9.76,-999.0,no,yes,no,300234066713470,WARM,ODU,ODU,North
2018-03-31T02:29:45Z,1522463386,2018,2,30,90.104,90.104,71.84053,-144.33894,-999.00,-9.84,-999.0,no,yes,no,300234066713470,WARM,ODU,ODU,North
2018-03-31T03:00:00Z,1522465200,2018,3,0,90.125,90.125,71.84071,-144.33993,-999.00,-10.21,-999.0,no,yes,no,300234066713470,WARM,ODU,ODU,North
2018-03-31T03:30:14Z,1522467014,2018,3,30,90.146,90.146,71.84088,-144.34076,-999.00,-10.41,-999.0,no,yes,no,300234066713470,WARM,ODU,ODU,North
2018-03-31T04:00:28Z,1522468829,2018,4,1,90.167,90.167,71.84098,-144.34163,-999.00,-10.53,-999.0,no,yes,no,300234066713470,WARM,ODU,ODU,North
2018-03-31T04:30:43Z,1522470643,2018,4,30,90.188,90.188,71.84107,-144.34242,-999.00,-10.66,-999.0,no,yes,no,300234066713470,WARM,ODU,ODU,North
2018-03-31T04:59:31Z,1522472371,2018,5,0,90.208,90.208,71.84117,-144.34328,-999.00,-10.69,-999.0,no,yes,no,300234066713470,WARM,ODU,ODU,North
2018-03-31T05:29:45Z,1522474186,2018,5,30,90.229,90.229,71.84129,-144.34419,-999.00,-10.47,-999.0,no,yes,no,300234066713470,WARM,ODU,ODU,North
2018-03-31T06:00:00Z,1522476000,2018,6,0,90.25,90.25,71.84139,-144.34518,-999.00,-10.3,-999.0,no,yes,no,300234066713470,WARM,ODU,ODU,North
2018-03-31T06:30:14Z,1522477814,2018,6,30,90.271,90.271,71.84153,-144.3465,-999.00,-10.02,-999.0,no,yes,no,300234066713470,WARM,ODU,ODU,North
2018-03-31T07:00:28Z,1522479629,2018,7,1,90.292,90.292,71.84167,-144.34804,-999.00,-9.88,-999.0,no,yes,no,300234066713470,WARM,ODU,ODU,North
2018-03-31T07:29:16Z,1522481357,2018,7,30,90.312,90.312,71.84192,-144.34943,-999.00,-9.87,-999.0,no,yes,no,300234066713470,WARM,ODU,ODU,North
2018-03-31T08:00:57Z,1522483258,2018,8,1,90.334,90.334,71.84225,-144.3512,-999.00,-9.85,-999.0,no,yes,no,300234066713470,WARM,ODU,ODU,North
2018-03-31T08:29:45Z,1522484986,2018,8,30,90.354,90.354,71.84267,-144.35307,-999.00,-9.98,-999.0,no,yes,no,300234066713470,WARM,ODU,ODU,North
2018-03-31T09:00:00Z,1522486800,2018,9,0,90.375,90.375,71.84329,-144.35507,-999.00,-10.03,-999.0,no,yes,no,300234066713470,WARM,ODU,ODU,North
2018-03-31T09:30:14Z,1522488614,2018,9,30,90.396,90.396,71.84397,-144.35693,-999.00,-9.66,-999.0,no,yes,no,300234066713470,WARM,ODU,ODU,North
2018-03-31T10:00:28Z,1522490429,2018,10,1,90.417,90.417,71.84476,-144.35904,-999.00,-9.7,-999.0,no,yes,no,300234066713470,WARM,ODU,ODU,North
2018-03-31T10:30:43Z,1522492243,2018,10,30,90.438,90.438,71.84563,-144.36083,-999.00,-9.61,-999.0,no,yes,no,300234066713470,WARM,ODU,ODU,North
2018-03-31T10:59:31Z,1522493971,2018,11,0,90.458,90.458,71.84666,-144.36276,-999.00,-9.73,-999.0,no,yes,no,300234066713470,WARM,ODU,ODU,North
2018-03-31T11:29:45Z,1522495786,2018,11,30,90.479,90.479,71.84779,-144.36469,-999.00,-9.84,-999.0,no,yes,no,300234066713470,WARM,ODU,ODU,North
2018-03-31T12:00:00Z,1522497600,2018,12,0,90.5,90.5,71.84905,-144.36649,-999.00,-9.93,-999.0,no,yes,no,300234066713470,WARM,ODU,ODU,North
2018-03-31T12:30:14Z,1522499414,2018,12,30,90.521,90.521,71.8504,-144.36807,-999.00,-10.57,-999.0,no,yes,no,300234066713470,WARM,ODU,ODU,North
2018-03-31T13:00:28Z,1522501229,2018,13,0,90.542,90.542,71.85183,-144.36945,-999.00,-10.94,-999.0,no,yes,no,300234066713470,WARM,ODU,ODU,North
2018-03-31T13:29:16Z,1522502957,2018,13,30,90.562,90.562,71.85326,-144.37085,-999.00,-11.59,-999.0,no,yes,no,300234066713470,WARM,ODU,ODU,North
2018-03-31T14:00:57Z,1522504858,2018,14,1,90.584,90.584,71.85482,-144.37209,-999.00,-11.67,-999.0,no,yes,no,300234066713470,WARM,ODU,ODU,North
2018-03-31T14:29:45Z,1522506586,2018,14,30,90.604,90.604,71.85642,-144.37288,-999.00,-11.44,-999.0,no,yes,no,300234066713470,WARM,ODU,ODU,North
2018-03-31T15:00:00Z,1522508400,2018,15,0,90.625,90.625,71.85815,-144.37331,-999.00,-11.11,-999.0,no,yes,no,300234066713470,WARM,ODU,ODU,North
2018-03-31T15:30:14Z,1522510214,2018,15,30,90.646,90.646,71.86,-144.37318,-999.00,-9.28,-999.0,no,yes,no,300234066713470,WARM,ODU,ODU,North
2018-03-31T16:00:28Z,1522512029,2018,16,0,90.667,90.667,71.86187,-144.37244,-999.00,-9.18,-999.0,no,yes,no,300234066713470,WARM,ODU,ODU,North
2018-03-31T16:30:43Z,1522513843,2018,16,30,90.688,90.688,71.86385,-144.3712,-999.00,-9.67,-999.0,no,yes,no,300234066713470,WARM,ODU,ODU,North
2018-03-31T16:59:31Z,1522515571,2018,17,0,90.708,90.708,71.86588,-144.36966,-999.00,-9.34,-999.0,no,yes,no,300234066713470,WARM,ODU,ODU,North
2018-03-31T17:31:12Z,1522517472,2018,17,31,90.73,90.73,71.8679,-144.36768,-999.00,-9.0,-999.0,no,yes,no,300234066713470,WARM,ODU,ODU,North
2018-03-31T18:00:00Z,1522519200,2018,18,0,90.75,90.75,71.86991,-144.36545,-999.00,-8.58,-999.0,no,yes,no,300234066713470,WARM,ODU,ODU,North
2018-03-31T18:30:14Z,1522521014,2018,18,30,90.771,90.771,71.87199,-144.36319,-999.00,-7.99,-999.0,no,yes,no,300234066713470,WARM,ODU,ODU,North
2018-03-31T19:00:28Z,1522522829,2018,19,0,90.792,90.792,71.87414,-144.36087,-999.00,-7.67,-999.0,no,yes,no,300234066713470,WARM,ODU,ODU,North
2018-03-31T19:29:16Z,1522524557,2018,19,30,90.812,90.812,71.87637,-144.35841,-999.00,-6.91,-999.0,no,yes,no,300234066713470,WARM,ODU,ODU,North
2018-03-31T20:00:57Z,1522526458,2018,20,1,90.834,90.834,71.8786,-144.35545,-999.00,-6.85,-999.0,no,yes,no,300234066713470,WARM,ODU,ODU,North
2018-03-31T20:29:45Z,1522528186,2018,20,30,90.854,90.854,71.88098,-144.35306,-999.00,-6.73,-999.0,no,yes,no,300234066713470,WARM,ODU,ODU,North
2018-03-31T21:00:00Z,1522530000,2018,21,0,90.875,90.875,71.88348,-144.35071,-999.00,-6.3,-999.0,no,yes,no,300234066713470,WARM,ODU,ODU,North
2018-03-31T21:30:14Z,1522531814,2018,21,30,90.896,90.896,71.88599,-144.34862,-999.00,-6.41,-999.0,no,yes,no,300234066713470,WARM,ODU,ODU,North
2018-03-31T22:00:28Z,1522533629,2018,22,0,90.917,90.917,71.88857,-144.34665,-999.00,-5.62,-999.0,no,yes,no,300234066713470,WARM,ODU,ODU,North
2018-03-31T22:30:43Z,1522535443,2018,22,31,90.938,90.938,71.89133,-144.34464,-999.00,-5.28,-999.0,no,yes,no,300234066713470,WARM,ODU,ODU,North
2018-03-31T22:59:31Z,1522537171,2018,23,0,90.958,90.958,71.89379,-144.34247,-999.00,-5.12,-999.0,no,yes,no,300234066713470,WARM,ODU,ODU,North
2018-03-31T23:31:12Z,1522539072,2018,23,31,90.98,90.98,71.89616,-144.34015,-999.00,-4.81,-999.0,no,yes,no,300234066713470,WARM,ODU,ODU,North
2018-04-01T00:00:00Z,1522540800,2018,0,0,91.0,91.0,71.89804,-144.33708,-999.00,-4.51,-999.0,no,yes,no,300234066713470,WARM,ODU,ODU,North
2018-04-01T00:30:14Z,1522542614,2018,0,30,91.021,91.021,71.89953,-144.3335,-999.00,-4.23,-999.0,no,yes,no,300234066713470,WARM,ODU,ODU,North
2018-04-01T01:00:28Z,1522544429,2018,1,0,91.042,91.042,71.9005,-144.32951,-999.00,-4.28,-999.0,no,yes,no,300234066713470,WARM,ODU,ODU,North
2018-04-01T01:29:16Z,1522546157,2018,1,30,91.062,91.062,71.90086,-144.32524,-999.00,-3.63,-999.0,no,yes,no,300234066713470,WARM,ODU,ODU,North
2018-04-01T02:00:57Z,1522548058,2018,2,1,91.084,91.084,71.90062,-144.32134,-999.00,-3.21,-999.0,no,yes,no,300234066713470,WARM,ODU,ODU,North
2018-04-01T02:29:45Z,1522549786,2018,2,30,91.104,91.104,71.89996,-144.31844,-999.00,-3.37,-999.0,no,yes,no,300234066713470,WARM,ODU,ODU,North
2018-04-01T03:00:00Z,1522551600,2018,3,0,91.125,91.125,71.89899,-144.31622,-999.00,-3.72,-999.0,no,yes,no,300234066713470,WARM,ODU,ODU,North
2018-04-01T03:30:14Z,1522553414,2018,3,30,91.146,91.146,71.89776,-144.31436,-999.00,-3.79,-999.0,no,yes,no,300234066713470,WARM,ODU,ODU,North
2018-04-01T04:00:28Z,1522555229,2018,4,0,91.167,91.167,71.89615,-144.31226,-999.00,-3.8,-999.0,no,yes,no,300234066713470,WARM,ODU,ODU,North
2018-04-01T04:30:43Z,1522557043,2018,4,30,91.188,91.188,71.89439,-144.31045,-999.00,-4.0,-999.0,no,yes,no,300234066713470,WARM,ODU,ODU,North
2018-04-01T05:00:57Z,1522558858,2018,5,1,91.209,91.209,71.89253,-144.30916,-999.00,-4.33,-999.0,no,yes,no,300234066713470,WARM,ODU,ODU,North
2018-04-01T05:29:45Z,1522560586,2018,5,30,91.229,91.229,71.89078,-144.30823,-999.00,-4.73,-999.0,no,yes,no,300234066713470,WARM,ODU,ODU,North
2018-04-01T06:00:00Z,1522562400,2018,6,0,91.25,91.25,71.88886,-144.30721,-999.00,-5.11,-999.0,no,yes,no,300234066713470,WARM,ODU,ODU,North
2018-04-01T06:30:14Z,1522564214,2018,6,30,91.271,91.271,71.88683,-144.30624,-999.00,-5.33,-999.0,no,yes,no,300234066713470,WARM,ODU,ODU,North
2018-04-01T07:00:28Z,1522566029,2018,7,1,91.292,91.292,71.8847,-144.30499,-999.00,-5.98,-999.0,no,yes,no,300234066713470,WARM,ODU,ODU,North
2018-04-01T07:29:16Z,1522567757,2018,7,30,91.312,91.312,71.8825,-144.30347,-999.00,-6.45,-999.0,no,yes,no,300234066713470,WARM,ODU,ODU,North
2018-04-01T07:59:31Z,1522569571,2018,8,0,91.333,91.333,71.88016,-144.30214,-999.00,-6.62,-999.0,no,yes,no,300234066713470,WARM,ODU,ODU,North
2018-04-01T08:29:45Z,1522571386,2018,8,30,91.354,91.354,71.8778,-144.30093,-999.00,-6.75,-999.0,no,yes,no,300234066713470,WARM,ODU,ODU,North
2018-04-01T09:00:00Z,1522573200,2018,9,0,91.375,91.375,71.8755,-144.29916,-999.00,-6.79,-999.0,no,yes,no,300234066713470,WARM,ODU,ODU,North
2018-04-01T09:30:14Z,1522575014,2018,9,30,91.396,91.396,71.87322,-144.29697,-999.00,-7.08,-999.0,no,yes,no,300234066713470,WARM,ODU,ODU,North
2018-04-01T10:00:28Z,1522576829,2018,10,1,91.417,91.417,71.87093,-144.2946,-999.00,-7.41,-999.0,no,yes,no,300234066713470,WARM,ODU,ODU,North
2018-04-01T10:30:43Z,1522578643,2018,10,30,91.438,91.438,71.86862,-144.29222,-999.00,-7.58,-999.0,no,yes,no,300234066713470,WARM,ODU,ODU,North
2018-04-01T10:59:31Z,1522580371,2018,11,0,91.458,91.458,71.8663,-144.2895,-999.00,-8.03,-999.0,no,yes,no,300234066713470,WARM,ODU,ODU,North
2018-04-01T11:29:45Z,1522582186,2018,11,30,91.479,91.479,71.86401,-144.28661,-999.00,-8.35,-999.0,no,yes,no,300234066713470,WARM,ODU,ODU,North
2018-04-01T12:00:00Z,1522584000,2018,12,0,91.5,91.5,71.86166,-144.28351,-999.00,-8.93,-999.0,no,yes,no,300234066713470,WARM,ODU,ODU,North
2018-04-01T12:30:14Z,1522585814,2018,12,30,91.521,91.521,71.85941,-144.28009,-999.00,-9.63,-999.0,no,yes,no,300234066713470,WARM,ODU,ODU,North
2018-04-01T13:00:28Z,1522587629,2018,13,0,91.542,91.542,71.85711,-144.27623,-999.00,-10.39,-999.0,no,yes,no,300234066713470,WARM,ODU,ODU,North
2018-04-01T13:29:16Z,1522589357,2018,13,30,91.562,91.562,71.85468,-144.27229,-999.00,-11.26,-999.0,no,yes,no,300234066713470,WARM,ODU,ODU,North
2018-04-01T14:00:57Z,1522591258,2018,14,1,91.584,91.584,71.85229,-144.26878,-999.00,-11.74,-999.0,no,yes,no,300234066713470,WARM,ODU,ODU,North
2018-04-01T14:29:45Z,1522592986,2018,14,30,91.604,91.604,71.84979,-144.26521,-999.00,-12.06,-999.0,no,yes,no,300234066713470,WARM,ODU,ODU,North
2018-04-01T15:00:00Z,1522594800,2018,15,0,91.625,91.625,71.84718,-144.26164,-999.00,-12.34,-999.0,no,yes,no,300234066713470,WARM,ODU,ODU,North
2018-04-01T15:30:14Z,1522596614,2018,15,30,91.646,91.646,71.84452,-144.25813,-999.00,-12.57,-999.0,no,yes,no,300234066713470,WARM,ODU,ODU,North
2018-04-01T16:00:28Z,1522598429,2018,16,0,91.667,91.667,71.8418,-144.25494,-999.00,-12.69,-999.0,no,yes,no,300234066713470,WARM,ODU,ODU,North
2018-04-01T16:30:43Z,1522600243,2018,16,30,91.688,91.688,71.83905,-144.25189,-999.00,-12.78,-999.0,no,yes,no,300234066713470,WARM,ODU,ODU,North
2018-04-01T16:59:31Z,1522601971,2018,17,0,91.708,91.708,71.8363,-144.24886,-999.00,-12.26,-999.0,no,yes,no,300234066713470,WARM,ODU,ODU,North
2018-04-01T17:31:12Z,1522603872,2018,17,31,91.73,91.73,71.83354,-144.24561,-999.00,-12.08,-999.0,no,yes,no,300234066713470,WARM,ODU,ODU,North
2018-04-01T18:00:00Z,1522605600,2018,18,0,91.75,91.75,71.83079,-144.24231,-999.00,-11.97,-999.0,no,yes,no,300234066713470,WARM,ODU,ODU,North
2018-04-01T18:30:14Z,1522607414,2018,18,30,91.771,91.771,71.82794,-144.23892,-999.00,-11.87,-999.0,no,yes,no,300234066713470,WARM,ODU,ODU,North
2018-04-01T19:00:28Z,1522609229,2018,19,0,91.792,91.792,71.82503,-144.23561,-999.00,-11.91,-999.0,no,yes,no,300234066713470,WARM,ODU,ODU,North
2018-04-01T19:29:16Z,1522610957,2018,19,30,91.812,91.812,71.82198,-144.23245,-999.00,-12.02,-999.0,no,yes,no,300234066713470,WARM,ODU,ODU,North
2018-04-01T20:00:57Z,1522612858,2018,20,1,91.834,91.834,71.81885,-144.2292,-999.00,-11.98,-999.0,no,yes,no,300234066713470,WARM,ODU,ODU,North
2018-04-01T20:29:45Z,1522614586,2018,20,30,91.854,91.854,71.81565,-144.22635,-999.00,-11.93,-999.0,no,yes,no,300234066713470,WARM,ODU,ODU,North
2018-04-01T21:00:00Z,1522616400,2018,21,0,91.875,91.875,71.81231,-144.22363,-999.00,-11.87,-999.0,no,yes,no,300234066713470,WARM,ODU,ODU,North
2018-04-01T21:30:14Z,1522618214,2018,21,30,91.896,91.896,71.80895,-144.22118,-999.00,-11.98,-999.0,no,yes,no,300234066713470,WARM,ODU,ODU,North
2018-04-01T22:00:28Z,1522620029,2018,22,0,91.917,91.917,71.80556,-144.21884,-999.00,-12.1,-999.0,no,yes,no,300234066713470,WARM,ODU,ODU,North
2018-04-01T22:30:43Z,1522621843,2018,22,31,91.938,91.938,71.80196,-144.21677,-999.00,-12.38,-999.0,no,yes,no,300234066713470,WARM,ODU,ODU,North
2018-04-01T22:59:31Z,1522623571,2018,23,0,91.958,91.958,71.79863,-144.21503,-999.00,-12.66,-999.0,no,yes,no,300234066713470,WARM,ODU,ODU,North
2018-04-01T23:31:12Z,1522625472,2018,23,31,91.98,91.98,71.79523,-144.21355,-999.00,-12.98,-999.0,no,yes,no,300234066713470,WARM,ODU,ODU,North
2018-04-02T00:00:00Z,1522627200,2018,0,0,92.0,92.0,71.79186,-144.21227,-999.00,-13.24,-999.0,no,yes,no,300234066713470,WARM,ODU,ODU,North
2018-04-02T00:30:14Z,1522629014,2018,0,30,92.021,92.021,71.78847,-144.21106,-999.00,-13.26,-999.0,no,yes,no,300234066713470,WARM,ODU,ODU,North
2018-04-02T01:00:28Z,1522630829,2018,1,0,92.042,92.042,71.78513,-144.20991,-999.00,-13.51,-999.0,no,yes,no,300234066713470,WARM,ODU,ODU,North
2018-04-02T01:29:16Z,1522632557,2018,1,30,92.062,92.062,71.78188,-144.20869,-999.00,-13.46,-999.0,no,yes,no,300234066713470,WARM,ODU,ODU,North
2018-04-02T02:00:57Z,1522634458,2018,2,1,92.084,92.084,71.77876,-144.20735,-999.00,-13.15,-999.0,no,yes,no,300234066713470,WARM,ODU,ODU,North
2018-04-02T02:29:45Z,1522636186,2018,2,30,92.104,92.104,71.7758,-144.20599,-999.00,-13.02,-999.0,no,yes,no,300234066713470,WARM,ODU,ODU,North
2018-04-02T03:00:00Z,1522638000,2018,3,0,92.125,92.125,71.77289,-144.20468,-999.00,-13.15,-999.0,no,yes,no,300234066713470,WARM,ODU,ODU,North
2018-04-02T03:30:14Z,1522639814,2018,3,30,92.146,92.146,71.77009,-144.20358,-999.00,-13.26,-999.0,no,yes,no,300234066713470,WARM,ODU,ODU,North
2018-04-02T04:00:28Z,1522641629,2018,4,0,92.167,92.167,71.76731,-144.20261,-999.00,-13.6,-999.0,no,yes,no,300234066713470,WARM,ODU,ODU,North
2018-04-02T04:30:43Z,1522643443,2018,4,30,92.188,92.188,71.76482,-144.20184,-999.00,-13.97,-999.0,no,yes,no,300234066713470,WARM,ODU,ODU,North
2018-04-02T05:00:57Z,1522645258,2018,5,1,92.209,92.209,71.76222,-144.20088,-999.00,-14.2,-999.0,no,yes,no,300234066713470,WARM,ODU,ODU,North
2018-04-02T05:29:45Z,1522646986,2018,5,30,92.229,92.229,71.76007,-144.19989,-999.00,-14.38,-999.0,no,yes,no,300234066713470,WARM,ODU,ODU,North
2018-04-02T06:00:00Z,1522648800,2018,6,0,92.25,92.25,71.75803,-144.19878,-999.00,-14.58,-999.0,no,yes,no,300234066713470,WARM,ODU,ODU,North
2018-04-02T06:31:40Z,1522650701,2018,6,31,92.272,92.272,71.75611,-144.19786,-999.00,-14.86,-999.0,no,yes,no,300234066713470,WARM,ODU,ODU,North
2018-04-02T07:00:28Z,1522652429,2018,7,0,92.292,92.292,71.75431,-144.1967,-999.00,-15.09,-999.0,no,yes,no,300234066713470,WARM,ODU,ODU,North
2018-04-02T07:29:16Z,1522654157,2018,7,30,92.312,92.312,71.75239,-144.19525,-999.00,-15.35,-999.0,no,yes,no,300234066713470,WARM,ODU,ODU,North
2018-04-02T08:00:57Z,1522656058,2018,8,1,92.334,92.334,71.75045,-144.19351,-999.00,-15.61,-999.0,no,yes,no,300234066713470,WARM,ODU,ODU,North
2018-04-02T08:29:45Z,1522657786,2018,8,30,92.354,92.354,71.74874,-144.19218,-999.00,-15.83,-999.0,no,yes,no,300234066713470,WARM,ODU,ODU,North
2018-04-02T09:00:00Z,1522659600,2018,9,0,92.375,92.375,71.74703,-144.19084,-999.00,-16.03,-999.0,no,yes,no,300234066713470,WARM,ODU,ODU,North
2018-04-02T09:30:14Z,1522661414,2018,9,30,92.396,92.396,71.74545,-144.18964,-999.00,-16.23,-999.0,no,yes,no,300234066713470,WARM,ODU,ODU,North
2018-04-02T10:00:28Z,1522663229,2018,10,0,92.417,92.417,71.74395,-144.18842,-999.00,-16.36,-999.0,no,yes,no,300234066713470,WARM,ODU,ODU,North
2018-04-02T10:30:43Z,1522665043,2018,10,31,92.438,92.438,71.74231,-144.18739,-999.00,-16.38,-999.0,no,yes,no,300234066713470,WARM,ODU,ODU,North
2018-04-02T10:59:31Z,1522666771,2018,11,0,92.458,92.458,71.74073,-144.1864,-999.00,-16.6,-999.0,no,yes,no,300234066713470,WARM,ODU,ODU,North
2018-04-02T11:29:45Z,1522668586,2018,11,30,92.479,92.479,71.73927,-144.18564,-999.00,-16.81,-999.0,no,yes,no,300234066713470,WARM,ODU,ODU,North
2018-04-02T12:00:00Z,1522670400,2018,12,0,92.5,92.5,71.73782,-144.18497,-999.00,-16.91,-999.0,no,yes,no,300234066713470,WARM,ODU,ODU,North
2018-04-02T12:30:14Z,1522672214,2018,12,30,92.521,92.521,71.73641,-144.18454,-999.00,-17.04,-999.0,no,yes,no,300234066713470,WARM,ODU,ODU,North
2018-04-02T13:00:28Z,1522674029,2018,13,0,92.542,92.542,71.73513,-144.18396,-999.00,-17.24,-999.0,no,yes,no,300234066713470,WARM,ODU,ODU,North
2018-04-02T13:29:16Z,1522675757,2018,13,30,92.562,92.562,71.73387,-144.18349,-999.00,-17.54,-999.0,no,yes,no,300234066713470,WARM,ODU,ODU,North
2018-04-02T14:00:57Z,1522677658,2018,14,1,92.584,92.584,71.73264,-144.18315,-999.00,-17.71,-999.0,no,yes,no,300234066713470,WARM,ODU,ODU,North
2018-04-02T14:29:45Z,1522679386,2018,14,30,92.604,92.604,71.73154,-144.18275,-999.00,-17.8,-999.0,no,yes,no,300234066713470,WARM,ODU,ODU,North
2018-04-02T15:00:00Z,1522681200,2018,15,0,92.625,92.625,71.73029,-144.18271,-999.00,-17.97,-999.0,no,yes,no,300234066713470,WARM,ODU,ODU,North
2018-04-02T15:30:14Z,1522683014,2018,15,30,92.646,92.646,71.729,-144.1824,-999.00,-17.25,-999.0,no,yes,no,300234066713470,WARM,ODU,ODU,North
2018-04-02T16:00:28Z,1522684829,2018,16,0,92.667,92.667,71.7277,-144.18222,-999.00,-16.06,-999.0,no,yes,no,300234066713470,WARM,ODU,ODU,North
2018-04-02T16:30:43Z,1522686643,2018,16,30,92.688,92.688,71.72636,-144.18201,-999.00,-14.64,-999.0,no,yes,no,300234066713470,WARM,ODU,ODU,North
2018-04-02T16:59:31Z,1522688371,2018,17,0,92.708,92.708,71.72496,-144.18188,-999.00,-13.19,-999.0,no,yes,no,300234066713470,WARM,ODU,ODU,North
2018-04-02T17:31:12Z,1522690272,2018,17,31,92.73,92.73,71.72356,-144.18181,-999.00,-12.16,-999.0,no,yes,no,300234066713470,WARM,ODU,ODU,North
2018-04-02T18:00:00Z,1522692000,2018,18,0,92.75,92.75,71.72208,-144.18162,-999.00,-11.47,-999.0,no,yes,no,300234066713470,WARM,ODU,ODU,North
2018-04-02T18:30:14Z,1522693814,2018,18,30,92.771,92.771,71.72048,-144.18146,-999.00,-11.26,-999.0,no,yes,no,300234066713470,WARM,ODU,ODU,North
2018-04-02T19:00:28Z,1522695629,2018,19,0,92.792,92.792,71.71883,-144.18132,-999.00,-11.4,-999.0,no,yes,no,300234066713470,WARM,ODU,ODU,North
2018-04-02T19:29:16Z,1522697357,2018,19,30,92.812,92.812,71.71702,-144.18135,-999.00,-12.33,-999.0,no,yes,no,300234066713470,WARM,ODU,ODU,North
2018-04-02T20:00:57Z,1522699258,2018,20,1,92.834,92.834,71.7151,-144.18121,-999.00,-13.55,-999.0,no,yes,no,300234066713470,WARM,ODU,ODU,North
2018-04-02T20:29:45Z,1522700986,2018,20,30,92.854,92.854,71.71314,-144.18161,-999.00,-14.17,-999.0,no,yes,no,300234066713470,WARM,ODU,ODU,North
2018-04-02T21:00:00Z,1522702800,2018,21,0,92.875,92.875,71.71111,-144.18228,-999.00,-14.52,-999.0,no,yes,no,300234066713470,WARM,ODU,ODU,North
2018-04-02T21:30:14Z,1522704614,2018,21,30,92.896,92.896,71.70921,-144.18314,-999.00,-14.67,-999.0,no,yes,no,300234066713470,WARM,ODU,ODU,North
2018-04-02T22:00:28Z,1522706429,2018,22,0,92.917,92.917,71.70713,-144.18378,-999.00,-14.68,-999.0,no,yes,no,300234066713470,WARM,ODU,ODU,North
2018-04-02T22:30:43Z,1522708243,2018,22,31,92.938,92.938,71.70511,-144.18571,-999.00,-14.66,-999.0,no,yes,no,300234066713470,WARM,ODU,ODU,North
2018-04-02T23:00:57Z,1522710058,2018,23,1,92.959,92.959,71.70324,-144.18764,-999.00,-14.69,-999.0,no,yes,no,300234066713470,WARM,ODU,ODU,North
2018-04-02T23:31:12Z,1522711872,2018,23,31,92.98,92.98,71.70156,-144.18974,-999.00,-14.8,-999.0,no,yes,no,300234066713470,WARM,ODU,ODU,North
2018-04-03T00:00:00Z,1522713600,2018,0,0,93.0,93.0,71.69982,-144.19222,-999.00,-14.82,-999.0,no,yes,no,300234066713470,WARM,ODU,ODU,North
2018-04-03T00:30:14Z,1522715414,2018,0,30,93.021,93.021,71.69833,-144.19469,-999.00,-14.83,-999.0,no,yes,no,300234066713470,WARM,ODU,ODU,North
2018-04-03T01:00:28Z,1522717229,2018,1,0,93.042,93.042,71.69701,-144.1971,-999.00,-14.97,-999.0,no,yes,no,300234066713470,WARM,ODU,ODU,North
2018-04-03T01:29:16Z,1522718957,2018,1,30,93.062,93.062,71.69592,-144.19916,-999.00,-15.07,-999.0,no,yes,no,300234066713470,WARM,ODU,ODU,North
2018-04-03T02:00:57Z,1522720858,2018,2,1,93.084,93.084,71.69484,-144.20187,-999.00,-15.17,-999.0,no,yes,no,300234066713470,WARM,ODU,ODU,North
2018-04-03T02:29:45Z,1522722586,2018,2,30,93.104,93.104,71.69385,-144.20487,-999.00,-15.31,-999.0,no,yes,no,300234066713470,WARM,ODU,ODU,North
2018-04-03T03:00:00Z,1522724400,2018,3,0,93.125,93.125,71.69308,-144.20744,-999.00,-15.4,-999.0,no,yes,no,300234066713470,WARM,ODU,ODU,North
2018-04-03T03:30:14Z,1522726214,2018,3,30,93.146,93.146,71.69234,-144.21008,-999.00,-15.5,-999.0,no,yes,no,300234066713470,WARM,ODU,ODU,North
2018-04-03T04:00:28Z,1522728029,2018,4,0,93.167,93.167,71.69191,-144.21227,-999.00,-15.75,-999.0,no,yes,no,300234066713470,WARM,ODU,ODU,North
2018-04-03T04:30:43Z,1522729843,2018,4,30,93.188,93.188,71.69138,-144.21449,-999.00,-16.08,-999.0,no,yes,no,300234066713470,WARM,ODU,ODU,North
2018-04-03T05:00:57Z,1522731658,2018,5,1,93.209,93.209,71.69071,-144.21648,-999.00,-16.29,-999.0,no,yes,no,300234066713470,WARM,ODU,ODU,North
2018-04-03T05:29:45Z,1522733386,2018,5,30,93.229,93.229,71.69019,-144.21841,-999.00,-16.62,-999.0,no,yes,no,300234066713470,WARM,ODU,ODU,North
2018-04-03T06:00:00Z,1522735200,2018,6,0,93.25,93.25,71.68955,-144.21995,-999.00,-17.06,-999.0,no,yes,no,300234066713470,WARM,ODU,ODU,North
2018-04-03T06:30:14Z,1522737014,2018,6,30,93.271,93.271,71.68894,-144.22147,-999.00,-17.48,-999.0,no,yes,no,300234066713470,WARM,ODU,ODU,North